Location:  
MeteoStar


Sort by weather type Sort by elevation Sort by visibility Sort from west to east north Sort from north to south Alphabetically Sort from strongest wind speed Sort from lowest to highest pressure Sort from highest to lowest dew point temperature Sort coolest temperatures to warmest Sort warm temperatures to coolest
 Metric

Current Observations for United Kingdom sorted from warmest to coolest

Scatsa / Shetland Island01:20ZLight Drizzle46 4631027.2WSW 21 3872
Sumburgh Cape 01:20ZCloudy46 4541029.1WSW 19 3916
Kirkwall Airport01:20ZMostly Cloudy46 4101031.1SW 8 4268
Lydd Airport 01:20ZClear46 4161030.1NE 17 399
Tiree01:20ZClear45 4131033.1N 12 3939
Stornoway01:20ZClear45 4331031.1SSW 13 3929
Wick01:20ZClear45 2841031.2SW 8 41127
London City Airport01:20ZClear45 3961032.1ENE 7 4116
Exeter Airport01:20ZNot Avail.43 3931030.2NNE 9 3898
Leuchars01:50ZNot Avail.43 3431033.1W 7 3939
Benbecula01:20ZNot Avail.43 4161033.1SSW 11 3719
London / Heathrow Airport01:20ZClear43 3761032.1NE 6 3978
London / Gatwick Airport01:20ZNot Avail.43 3961031.2NE 9 38203
Cardiff-Wales Airport01:20ZClear43 3951032.2ENE 13 36219
Boulmer01:50ZClear41 3231034.2W 8 3675
Isle Of Man / Ronaldsway Airport01:50ZNot Avail.41 3601034.1NE 6 3755
Southend-On-Sea 01:50ZNot Avail.41 3761031.1N 5 3849
Liverpool Airport 01:20ZNot Avail.41 3651035.2E 3 4185
Brize Norton01:50ZNot Avail.39 3631032.2NNE 11 32288
Norwich Weather Centre01:20ZClear39 3731034.1NNE 5 3545
Lossiemouth01:50ZNot Avail.39 3031032.1SW 8 3342
Bristol / Lulsgate 01:20ZClear39 3751031.4NE 17 30620
Coningsby Royal Air Force Base01:50ZNot Avail.37 3631035.1N 5 3322
Stansted Airport01:20ZClear37 3631032.3NE 7 32347
Inverness / Dalcross01:20ZNot Avail.37 3441033.1WSW 10 3029
Humberside01:20ZFog37 3701036.2NNE 3 37101
Birmingham / Airport01:20ZNot Avail.37 3751034.3N 3 37324
Waddington01:50ZMist36 3641035.3NNE 6 31223
Edinburgh Airport01:20ZNot Avail.36 3261034.2N 3 36134
East Midlands01:20ZNot Avail.36 3401035.3NNE 8 30308
Leeds And Bradford01:20ZNot Avail.36 3401035.5N 1 36682
Luton Airport 01:20ZClear36 3651032.4NNE 5 32524
Manchester Airport01:20ZClear36 2851035.2N 1 36226
Aberdeen / Dyce01:20ZClear34 3241033.2N 2 34213
Newcastle 01:20ZNot Avail.34 3401035.3SW 3 34265
Leconfield01:50ZFog32 320.121035.1WSW 2 3219
Prestwick Airport01:50ZNot Avail.32 2861035.2ESE 2 3265
Glasgow Airport01:20ZClear32 3061035.1NW 2 3226
Belfast / Aldergrove Airport01:20ZNot Avail.28 271035.3E 3 28265

Atlantic
Tropical Watch